Location: Newark
(34.7667°N, 118.4167°W)
Time: 17:37:45
(UTC+00:00)

Hubble Space Telescope - Pass Details

Date: 28 October 2019
Orbit: 536 x 540 km, 28.5° (Epoch: 19 November)

Event Time Altitude Azimuth Distance (km) Brightness Sun altitude
Exits shadow 12:48:28 - 206° (SSW) 1,896 3.3 -17.4°
Reaches altitude 10° 12:48:55 10° 202° (SSW) 1,776 3.2 -17.3°
Maximum altitude 12:51:34 17° 161° (SSE) 1,402 3.2 -16.8°
Drops below altitude 10° 12:54:14 10° 121° (ESE) 1,777 4.4 -16.2°
Sets 12:57:07 0° 100° (E) 2,669 6.2 -15.6°
